2023/05/02 00:00:00, 5.2, 6.1
2023/05/02 00:10:00, 5.1, 5.6
2023/05/02 00:20:00, 3.1, 5.5
2023/05/02 00:30:00, 1.8, 5.4
2023/05/02 00:40:00, 0.8, 5.5
2023/05/02 00:50:00, 0.9, 5.3
2023/05/02 01:00:00, 1.3, 5.2
2023/05/02 01:10:00, 0.4, 5.1
2023/05/02 01:20:00, 1.0, 5.1
2023/05/02 01:30:00, 1.1, 5.1
2023/05/02 01:40:00, 0.3, 4.9
2023/05/02 01:50:00, 0.4, 4.8
2023/05/02 02:00:00, 0.6, 4.6
2023/05/02 02:10:00, 0.6, 4.6
2023/05/02 02:20:00, 0.4, 4.4
2023/05/02 02:30:00, 0.6, 4.2
2023/05/02 02:40:00, 0.6, 4.3
2023/05/02 02:50:00, 0.8, 4.3
2023/05/02 03:00:00, 1.0, 4.2
2023/05/02 03:10:00, 0.7, 3.9
2023/05/02 03:20:00, 0.5, 4.2
2023/05/02 03:30:00, 0.3, 3.8
2023/05/02 03:40:00, 0.2, 3.9
2023/05/02 03:50:00, 0.2, 3.9
2023/05/02 04:00:00, 0.1, 3.9
2023/05/02 04:10:00, 0.2, 3.6
2023/05/02 04:20:00, 0.1, 3.8
2023/05/02 04:30:00, 0.2, 3.6
2023/05/02 04:40:00, 0.2, 3.5
2023/05/02 04:50:00, 0.3, 3.9
2023/05/02 05:00:00, 0.2, 2.9
2023/05/02 05:10:00, 0.1, 3.6
2023/05/02 05:20:00, 0.2, 3.5
2023/05/02 05:30:00, 0.2, 3.4
2023/05/02 05:40:00, 0.2, 3.5
2023/05/02 05:50:00, 0.2, 3.4
2023/05/02 06:00:00, 0.1, 3.6
2023/05/02 06:10:00, 0.1, 3.8
2023/05/02 06:20:00, 0.0, 4.0
2023/05/02 06:30:00, 0.0, 4.1
2023/05/02 06:40:00, 0.1, 4.3
2023/05/02 06:50:00, 0.1, 5.1
2023/05/02 07:00:00, 0.2, 5.5
2023/05/02 07:10:00, 0.1, 6.0
2023/05/02 07:20:00, 0.1, 7.0
2023/05/02 07:30:00, 0.1, 7.3
2023/05/02 07:40:00, 0.1, 7.7
2023/05/02 07:50:00, 0.0, 8.5
2023/05/02 08:00:00, 0.1, 9.0
2023/05/02 08:10:00, 0.2,10.1
2023/05/02 08:20:00, 0.6,11.5
2023/05/02 08:30:00, 1.7,12.4
2023/05/02 08:40:00, 6.0,12.6
2023/05/02 08:50:00, 6.4,12.7
2023/05/02 09:00:00, 0.0,13.7
2023/05/02 09:10:00, 0.0,15.6
2023/05/02 09:20:00, 0.0,15.6
2023/05/02 09:30:00,---,17.3
2023/05/02 09:40:00, 0.0,17.4
2023/05/02 09:50:00, 0.0,17.6
2023/05/02 10:00:00, 0.0,17.9
2023/05/02 10:10:00, 1.2,18.2
2023/05/02 10:20:00, 0.2,18.7
2023/05/02 10:30:00, 0.0,19.5
2023/05/02 10:40:00, 2.7,19.6
2023/05/02 10:50:00, 0.6,20.1
2023/05/02 11:00:00, 1.6,19.6
2023/05/02 11:10:00, 0.7,19.9
2023/05/02 11:20:00, 0.0,20.4
2023/05/02 11:30:00, 1.9,21.4
2023/05/02 11:40:00, 1.6,20.3
2023/05/02 11:50:00,---,21.0
2023/05/02 12:00:00, 0.7,20.7
2023/05/02 12:10:00, 1.0,21.0
2023/05/02 12:20:00, 0.3,21.6
2023/05/02 12:30:00, 0.2,21.6
2023/05/02 12:40:00, 0.1,21.2
2023/05/02 12:50:00, 0.2,21.9
2023/05/02 13:00:00, 0.5,21.3
2023/05/02 13:10:00, 0.8,21.7
2023/05/02 13:20:00, 0.4,21.7
2023/05/02 13:30:00, 0.8,23.1
2023/05/02 13:40:00, 0.2,22.5
2023/05/02 13:50:00, 0.3,22.6
2023/05/02 14:00:00, 0.0,22.4
2023/05/02 14:10:00, 0.5,22.7
2023/05/02 14:20:00, 0.6,23.1
2023/05/02 14:30:00, 0.3,22.8
2023/05/02 14:40:00, 0.3,22.4
2023/05/02 14:50:00, 0.6,22.5
2023/05/02 15:00:00, 1.5,22.8
2023/05/02 15:10:00, 3.1,21.7
2023/05/02 15:20:00, 4.1,22.8
2023/05/02 15:30:00, 3.9,22.9
2023/05/02 15:40:00, 5.1,22.5
2023/05/02 15:50:00, 7.5,22.7
2023/05/02 16:00:00, 6.6,21.9
2023/05/02 16:10:00, 6.1,22.2
2023/05/02 16:20:00, 8.4,22.3
2023/05/02 16:30:00, 8.7,22.1
2023/05/02 16:40:00, 4.4,21.9
2023/05/02 16:50:00, 5.0,20.8
2023/05/02 17:00:00, 3.6,21.9
2023/05/02 17:10:00, 2.7,21.0
2023/05/02 17:20:00, 2.3,21.6
2023/05/02 17:30:00, 4.9,21.2
2023/05/02 17:40:00, 2.1,18.2
2023/05/02 17:50:00, 0.5,16.9
2023/05/02 18:00:00, 1.2,16.7
2023/05/02 18:10:00, 2.1,15.9
2023/05/02 18:20:00, 1.7,15.4
2023/05/02 18:30:00, 2.1,14.8
2023/05/02 18:40:00, 2.2,14.5
2023/05/02 18:50:00, 3.5,13.9
2023/05/02 19:00:00, 4.3,13.5
2023/05/02 19:10:00, 4.3,13.0
2023/05/02 19:20:00, 6.4,12.8
2023/05/02 19:30:00, 7.3,12.4
2023/05/02 19:40:00, 9.9,12.0
2023/05/02 19:50:00,10.3,11.5
2023/05/02 20:00:00,10.9,11.6
2023/05/02 20:10:00,11.2,11.3
2023/05/02 20:20:00,11.1,11.1
2023/05/02 20:30:00,11.2,10.8
2023/05/02 20:40:00,12.4,10.3
2023/05/02 20:50:00,13.2,10.3
2023/05/02 21:00:00,12.8, 9.8
2023/05/02 21:10:00,13.0,10.0
2023/05/02 21:20:00,12.7, 9.8
2023/05/02 21:30:00,13.6, 9.7
2023/05/02 21:40:00,13.9, 9.5
2023/05/02 21:50:00,14.5, 9.6
2023/05/02 22:00:00,15.8, 9.6
2023/05/02 22:10:00,15.3, 9.6
2023/05/02 22:20:00,15.3, 9.6
2023/05/02 22:30:00,15.7, 9.3
2023/05/02 22:40:00,15.6, 9.2
2023/05/02 22:50:00,15.2, 9.2
2023/05/02 23:00:00,15.4, 9.0
2023/05/02 23:10:00,15.1, 8.8
2023/05/02 23:20:00,15.5, 8.2
2023/05/02 23:30:00,15.7, 8.0
2023/05/02 23:40:00,15.3, 8.5
2023/05/02 23:50:00,15.3, 8.5
